Location: Hardenberg
(52.5670°N, 6.6170°E)
Time: 19:17:59
(UTC+02:00)

ISS - Pass Details

Date: 18 May 2021
Orbit: 417 x 422 km, 51.6° (Epoch: 12 June)

Event Time Altitude Azimuth Distance (km) Brightness Sun altitude
Rises 01:16:00 0° 274° (W) 2,369 0.2 -17.8°
Reaches altitude 10° 01:18:07 10° 272° (W) 1,505 -0.9 -17.8°
Maximum altitude 01:21:28 71° 189° (S) 450 -3.9 -17.9°
Enters shadow 01:22:47 34° 113° (ESE) 719 -2.8 -17.9°
